Location: *
(48.8489°N, 2.3218°E)
Time: 06:00:16
(UTC+00:00)

S3M - Pass Details

Date: 23 August 2019
Orbit: 948 x 1005 km, 83.0° (Epoch: 21 September)

Event Time Altitude Azimuth Distance (km) Brightness Sun altitude
Rises 19:25:43 0° 162° (SSE) 3,690 6.6 -6.0°
Reaches altitude 10° 19:28:23 10° 156° (SSE) 2,737 5.9 -6.4°
Maximum altitude 19:34:10 40° 88° (E) 1,401 4.5 -7.3°
Drops below altitude 10° 19:39:53 10° 22° (NNE) 2,718 6.4 -8.1°
Sets 19:42:31 0° 15° (NNE) 3,661 7.2 -8.5°
